Flag for Cyprus Weather past 2 weeks in Limassol, Cyprus

Now
86 °F

Passing clouds.


Feels Like: 93 °F
Forecast: 71 / 92 °F
Wind: 12 mph from Southwest

Location: Akrotiri

Current Time: Jul 30, 2015 at 4:05:35 PM

Latest Report: Jul 30, 2015 at 2:50 PM


Visibility: N/A

Pressure: 29.68 "Hg

Humidity: 66%

Dew point: 73 °F

Location of LimassolLocation

Historic Weather in Limassol — Graph

°F

Limassol temperature yesterday

Maximum temperature yesterday: 86 °F (at 9:50 AM)
Minimum temperature yesterday: 75 °F (at 1:50 AM)
Average temperature yesterday: 81 °F

Past Weeks' High & Low Weather Summary

 TemperatureHumidityPressure
High93 °F (Jul 20, 11:50 AM)100% (Jul 17, 6:50 AM)29.80 "Hg (Jul 17, 6:50 AM)
Low70 °F (Jul 24, 4:50 AM)23% (Jul 22, 11:50 AM)29.59 "Hg (Jul 20, 5:50 PM)
Average81 °F72%29.70 "Hg
* Reported Jul 15 2:50 PM — Jul 30 2:50 PM, Limassol, Weather by CustomWeather, © 2015

Note: Actual official high and low records may vary slightly from our data, if they occured in-between our weather recording intervals... More about our weather records

Advertising

Limassol weather history for previous 24 hours

 ConditionsComfort  
Time TempWeatherWind HumidityBarometerVisibility
2:50 PM
Thu, Jul 30
86 °FPassing clouds.12 mph66%29.68 "HgN/A
1:50 PM86 °FPassing clouds.9 mph70%29.68 "HgN/A
12:50 PM86 °FPassing clouds.9 mph66%29.68 "HgN/A
11:50 AM86 °FPassing clouds.9 mph70%29.68 "HgN/A
10:50 AM84 °FPassing clouds.8 mph74%29.71 "HgN/A
9:50 AM82 °FPassing clouds.9 mph79%29.71 "HgN/A
8:50 AM82 °FHaze.1 mph79%29.71 "Hg6 mi
7:50 AM79 °FPartly sunny.3 mph89%29.71 "Hg2 mi
6:50 AM77 °FFog.2 mph94%29.68 "Hg2 mi
5:50 AM75 °FFog.1 mph100%29.68 "Hg2 mi
4:50 AM77 °FFog.1 mph94%29.68 "Hg4 mi
3:50 AM77 °FPassing clouds.5 mph94%29.65 "Hg2 mi
2:50 AM79 °FHaze.6 mph89%29.68 "Hg4 mi
1:50 AM79 °FHaze.3 mph89%29.68 "Hg4 mi
12:50 AM79 °FClear.3 mph89%29.68 "Hg6 mi
11:50 PM
Wed, Jul 29
79 °FClear.6 mph89%29.68 "Hg10 mi
10:50 PM81 °FClear.8 mph84%29.68 "Hg10 mi
9:50 PM81 °FClear.9 mph84%29.68 "Hg10 mi
8:50 PM81 °FPassing clouds.9 mph84%29.68 "HgN/A
7:50 PM82 °FSunny.10 mph79%29.68 "Hg10 mi
6:50 PM82 °FPassing clouds.13 mph79%29.65 "HgN/A
5:50 PM84 °FPassing clouds.12 mph74%29.65 "HgN/A
4:50 PM84 °FPassing clouds.12 mph74%29.68 "HgN/A
Weather by CustomWeather, © 2015

See weather overviewHow to use our weather pages